Date String (YYYY-MM-DD hh:mm:ss) UTC,Instrument flags,absolute air pressure of the measurement (hPa),sample flow rate (lpm),inlet stack bypass flow (lpm),air temperature of the measurement (°C),ambient temperature measured by the external sensor (°C),aerosol sample conditioner tube jacket temperature (°C),OPC LED temperature (°C),internal box temperature (°C),relative humidity of the measurement (%),span deviation,mass concentration of particles derived from Lorenz-Mie calculation of OPC scattering (μg/m³),mass concentration of particles derived from Lorenz-Mie calculation of OPC scattering (μg/m³),mass concentration of particles derived from Lorenz-Mie calculation of OPC scattering (μg/m³)
DateTimeUTC,F1_M11,P_M11,Q1_M11,Q2_M11,T1_M11,T2_M11,T3_M11,T4_M11,T5_M11,U1_M11,ZSPAN_M11,X2_M11,X0_M11,X1_M11
2023-11-07 12:00:00,SystemResetWarning,0822.4,4.99,000.00,027.7,026.4,000.0,036.1,029.0,8.5,0000.0,0003.67,0008.05,0003.19
2023-11-07 12:01:00,SystemResetWarning,0822.4,5.00,000.00,027.6,026.4,000.0,036.1,029.0,8.5,0000.0,0003.68,0007.81,0003.20
2023-11-07 12:02:00,SystemResetWarning,0822.5,5.00,000.00,027.6,026.4,000.0,036.1,029.0,8.4,0000.0,0003.71,0007.81,0003.20
2023-11-07 12:03:00,SystemResetWarning,0822.5,5.01,000.00,027.6,026.4,000.0,036.1,029.0,8.5,0000.0,0003.70,0007.56,0003.20
2023-11-07 12:04:00,SystemResetWarning,0822.4,5.01,000.00,027.6,026.4,000.0,036.1,029.0,8.5,0000.0,0003.69,0007.57,0003.20
2023-11-07 12:05:00,SystemResetWarning,0822.6,5.00,000.00,027.6,026.4,000.0,036.1,029.0,8.5,0000.0,0003.74,0007.59,0003.22
2023-11-07 12:06:00,SystemResetWarning,0822.4,5.01,000.00,027.6,026.4,000.0,036.1,029.0,8.6,0000.0,0003.75,0007.57,0003.22
2023-11-07 12:07:00,SystemResetWarning,0822.6,5.00,000.00,027.6,026.4,000.0,036.1,029.0,8.7,0000.0,0003.75,0007.87,0003.22
2023-11-07 12:08:00,SystemResetWarning,0822.6,5.00,000.00,027.6,026.4,000.0,036.1,029.0,8.8,0000.0,0003.73,0009.40,0003.22
2023-11-07 12:09:00,SystemResetWarning,0822.7,5.00,000.00,027.6,026.4,000.0,036.1,028.9,8.7,0000.0,0003.73,0009.80,0003.21
2023-11-07 12:10:00,SystemResetWarning,0822.5,5.00,000.00,027.6,026.4,000.0,036.1,029.0,8.6,0000.0,0003.72,0009.25,0003.20
2023-11-07 12:11:00,SystemResetWarning,0822.5,5.00,000.00,027.6,026.4,000.0,036.1,029.0,8.6,0000.0,0003.76,0009.13,0003.21
2023-11-07 12:12:00,SystemResetWarning,0822.4,5.00,000.00,027.6,026.4,000.0,036.1,029.0,8.6,0000.0,0003.80,0009.24,0003.22
2023-11-07 12:13:00,SystemResetWarning,0822.4,5.00,000.00,027.6,026.4,000.0,036.1,028.9,8.6,0000.0,0003.77,0009.11,0003.22
2023-11-07 12:14:00,SystemResetWarning,0822.4,5.00,000.00,027.6,026.4,000.0,036.0,028.9,8.6,0000.0,0003.80,0009.15,0003.23
2023-11-07 12:15:00,SystemResetWarning,0822.4,5.00,000.00,027.6,026.4,000.0,036.0,028.9,8.6,0000.0,0003.85,0009.16,0003.23
2023-11-07 12:16:00,SystemResetWarning,0822.4,5.00,000.00,027.6,026.4,000.0,036.0,029.0,8.6,0000.0,0003.85,0009.21,0003.23
2023-11-07 12:17:00,SystemResetWarning,0822.5,5.00,000.00,027.6,026.4,000.0,036.0,028.9,8.6,0000.0,0003.89,0009.34,0003.23
2023-11-07 12:18:00,SystemResetWarning,0822.4,4.99,000.00,027.6,026.4,000.0,036.0,028.9,8.6,0000.0,0003.86,0009.15,0003.24
2023-11-07 12:19:00,SystemResetWarning,0822.4,5.01,000.00,027.6,026.4,000.0,036.0,029.0,8.7,0000.0,0003.85,0007.75,0003.24
2023-11-07 12:20:00,SystemResetWarning,0822.4,5.01,000.00,027.6,026.4,000.0,036.0,028.9,8.8,0000.0,0003.85,0006.77,0003.25
2023-11-07 12:21:00,SystemResetWarning,0822.4,5.00,000.00,027.6,026.4,000.0,036.0,029.0,8.8,0000.0,0003.83,0006.61,0003.25
2023-11-07 12:22:00,SystemResetWarning,0822.4,5.00,000.00,027.6,026.4,000.0,036.0,028.9,8.8,0000.0,0003.81,0006.40,0003.25
2023-11-07 12:23:00,SystemResetWarning,0822.4,5.00,000.00,027.6,026.4,000.0,036.0,028.9,8.9,0000.0,0003.80,0006.45,0003.26
2023-11-07 12:24:00,SystemResetWarning,0822.4,5.00,000.00,027.6,026.4,000.0,036.0,028.9,8.8,0000.0,0003.80,0007.67,0003.25
2023-11-07 12:25:00,SystemResetWarning,0822.4,5.00,000.00,027.5,026.4,000.0,036.0,028.9,8.8,0000.0,0003.82,0008.16,0003.24
2023-11-07 12:26:00,SystemResetWarning,0822.4,5.00,000.00,027.5,026.4,000.0,036.0,028.9,8.8,0000.0,0003.80,0008.16,0003.23
2023-11-07 12:27:00,SystemResetWarning,0822.4,4.99,000.00,027.5,026.3,000.0,036.0,028.9,8.9,0000.0,0003.76,0008.38,0003.23
2023-11-07 12:28:00,SystemResetWarning,0822.4,4.99,000.00,027.5,026.3,000.0,036.0,028.9,8.9,0000.0,0003.75,0008.53,0003.23
2023-11-07 12:29:00,SystemResetWarning,0822.4,4.99,000.00,027.5,026.3,000.0,036.0,028.8,8.9,0000.0,0003.80,0008.68,0003.23
2023-11-07 12:30:00,SystemResetWarning,0822.4,5.01,000.00,027.5,026.3,000.0,036.0,028.8,8.9,0000.0,0003.82,0008.72,0003.23
2023-11-07 12:31:00,SystemResetWarning,0822.4,5.01,000.00,027.5,026.3,000.0,036.0,028.8,8.9,0000.0,0003.80,0008.68,0003.23
2023-11-07 12:32:00,SystemResetWarning,0822.4,4.99,000.00,027.5,026.3,000.0,036.0,028.8,8.8,0000.0,0003.84,0008.82,0003.24
2023-11-07 12:33:00,SystemResetWarning,0822.4,4.99,000.00,027.5,026.3,000.0,036.0,028.8,8.7,0000.0,0003.85,0008.87,0003.24
2023-11-07 12:34:00,SystemResetWarning,0822.4,4.99,000.00,027.5,026.3,000.0,035.9,028.9,8.7,0000.0,0003.83,0009.07,0003.25
2023-11-07 12:35:00,SystemResetWarning,0822.4,4.99,000.00,027.5,026.3,000.0,035.9,028.9,8.7,0000.0,0003.81,0009.00,0003.25
2023-11-07 12:36:00,SystemResetWarning,0822.4,5.00,000.00,027.5,026.3,000.0,035.9,028.8,8.7,0000.0,0003.81,0008.38,0003.26
2023-11-07 12:37:00,SystemResetWarning,0822.4,5.00,000.00,027.5,026.3,000.0,035.9,028.9,8.7,0000.0,0003.78,0008.99,0003.26
2023-11-07 12:38:00,SystemResetWarning,0822.4,5.00,000.00,027.5,026.3,000.0,035.9,028.8,8.7,0000.0,0003.81,0008.87,0003.27
2023-11-07 12:39:00,SystemResetWarning,0822.4,5.01,000.00,027.5,026.3,000.0,035.9,028.8,8.8,0000.0,0003.79,0008.84,0003.26
2023-11-07 12:40:00,SystemResetWarning,0822.4,5.00,000.00,027.5,026.3,000.0,035.9,028.8,8.7,0000.0,0003.76,0009.05,0003.26
2023-11-07 12:41:00,SystemResetWarning,0822.4,5.00,000.00,027.5,026.3,000.0,035.9,028.8,8.7,0000.0,0003.71,0009.06,0003.26
2023-11-07 12:42:00,SystemResetWarning,0822.4,5.01,000.00,027.4,026.2,000.0,035.9,028.8,8.7,0000.0,0003.74,0009.48,0003.27
2023-11-07 12:43:00,SystemResetWarning,0822.4,4.99,000.00,027.5,026.3,000.0,035.9,028.8,8.7,0000.0,0003.74,0010.25,0003.26
2023-11-07 12:44:00,SystemResetWarning,0822.3,4.99,000.00,027.4,026.2,000.0,035.9,028.8,8.6,0000.0,0003.72,0010.45,0003.25
2023-11-07 12:45:00,SystemResetWarning,0822.4,5.00,000.00,027.4,026.2,000.0,035.9,028.8,8.6,0000.0,0003.71,0010.39,0003.23
2023-11-07 12:46:00,SystemResetWarning,0822.3,5.00,000.00,027.4,026.2,000.0,035.9,028.8,8.8,0000.0,0003.69,0010.89,0003.22
2023-11-07 12:47:00,SystemResetWarning,0822.3,5.00,000.00,027.4,026.2,000.0,035.9,028.8,8.8,0000.0,0003.70,0011.72,0003.22
2023-11-07 12:48:00,SystemResetWarning,0822.3,5.00,000.00,027.4,026.2,000.0,035.9,028.8,8.8,0000.0,0003.68,0011.53,0003.21
2023-11-07 12:49:00,SystemResetWarning,0822.3,5.00,000.00,027.4,026.2,000.0,035.9,028.8,8.8,0000.0,0003.61,0011.23,0003.21
2023-11-07 12:50:00,SystemResetWarning,0822.4,5.01,000.00,027.4,026.2,000.0,035.9,028.8,8.8,0000.0,0003.64,0011.17,0003.22
2023-11-07 12:51:00,SystemResetWarning,0822.3,5.00,000.00,027.4,026.2,000.0,035.9,028.8,8.8,0000.0,0003.66,0010.78,0003.21
2023-11-07 12:52:00,SystemResetWarning,0822.3,5.00,000.00,027.4,026.1,000.0,035.9,028.8,8.7,0000.0,0003.70,0010.80,0003.21
2023-11-07 12:53:00,SystemResetWarning,0822.3,4.99,000.00,027.4,026.1,000.0,035.9,028.7,8.7,0000.0,0003.68,0010.41,0003.20
2023-11-07 12:54:00,SystemResetWarning,0822.3,4.99,000.00,027.4,026.1,000.0,035.8,028.7,8.7,0000.0,0003.65,0009.48,0003.21
2023-11-07 12:55:00,SystemResetWarning,0822.4,5.01,000.00,027.4,026.1,000.0,035.8,028.7,8.7,0000.0,0003.64,0009.43,0003.21
2023-11-07 12:56:00,SystemResetWarning,0822.3,5.01,000.00,027.3,026.1,000.0,035.8,028.7,8.7,0000.0,0003.65,0009.51,0003.21
2023-11-07 12:57:00,SystemResetWarning,0822.2,5.01,000.00,027.3,026.1,000.0,035.8,028.7,8.6,0000.0,0003.66,0008.34,0003.21
2023-11-07 12:58:00,SystemResetWarning,0822.3,5.00,000.00,027.3,026.1,000.0,035.8,028.7,8.6,0000.0,0003.61,0007.37,0003.20
2023-11-07 12:59:00,SystemResetWarning,0822.2,5.01,000.00,027.3,026.1,000.0,035.8,028.7,8.6,0000.0,0003.61,0006.85,0003.20
